Terminal Aerodrome Forecast
Issued by NWS Wilmington, OH

Current Version | Previous Version | Text Only | Print | Product List | Glossary Off
Versions: 1 2 3 4 5 6 7 8 9 10 11 12 13 14 15 16 17 18 19

000
FTUS41 KILN 060500
TAFILN
TAF
KILN 060520Z 0606/0706 03004KT P6SM FEW150 OVC220
      TEMPO 0609/0612 5SM BR
     FM061400 24006KT P6SM SCT040 BKN250
     FM070000 17004KT P6SM SCT250=

USA.gov is the U.S. government's official web portal to all federal, state and local government web resources and services.